When you browse on this site, cookies collect data to enhance your experience and personalize the content and advertising you see.
Visit our Privacy Policy to learn more. By continuing to use the site, you agree to this use of cookies and data.
  • In United Kingdom
  • List of Countries
  • For 7 days
  • Water Temperature
  • Weather Map
  • Weather Widgets
  • user-avatar
    Login

    Hourly Weather Dabas

    Today, 18 September, Wednesday

    Time Temperature Precipitation Wind Pressure Humidity
    00:00 +17°C° 0 mm 5 mps 751 mmHg 61%
    01:00 +17°C° 0 mm 4 mps 751 mmHg 67%
    02:00 +15°C° 0 mm 4 mps 752 mmHg 64%
    03:00 +14°C° 0 mm 4 mps 752 mmHg 62%
    04:00 +13°C° 0 mm 4 mps 753 mmHg 60%
    05:00 +13°C° 0 mm 5 mps 754 mmHg 57%
    06:00 +13°C° 0 mm 6 mps 754 mmHg 55%
    07:00 +12°C° 0 mm 7 mps 755 mmHg 52%
    08:00 +14°C° 0 mm 7 mps 756 mmHg 47%
    09:00 +15°C° 0 mm 7 mps 756 mmHg 42%
    10:00 +16°C° 0 mm 6 mps 756 mmHg 37%
    11:00 +17°C° 0 mm 6 mps 756 mmHg 34%
    12:00 +19°C° 0 mm 5 mps 756 mmHg 31%
    13:00 +19°C° 0 mm 5 mps 756 mmHg 28%
    14:00 +19°C° 0 mm 5 mps 756 mmHg 28%
    15:00 +19°C° 0 mm 5 mps 756 mmHg 28%
    16:00 +19°C° 0 mm 5 mps 756 mmHg 27%
    17:00 +17°C° 0 mm 4 mps 756 mmHg 30%
    18:00 +16°C° 0 mm 3 mps 756 mmHg 33%
    19:00 +13°C° 0 mm 3 mps 756 mmHg 36%
    20:00 +14°C° 0 mm 2 mps 757 mmHg 38%
    21:00 +13°C° 0 mm 2 mps 757 mmHg 39%
    22:00 +13°C° 0 mm 2 mps 757 mmHg 40%
    23:00 +12°C° 0 mm 2 mps 757 mmHg 43%

    Tomorrow, 19 September, Thursday

    Time Temperature Precipitation Wind Pressure Humidity
    00:00 +12°C° 0 mm 2 mps 757 mmHg 46%
    01:00 +10°C° 0 mm 2 mps 757 mmHg 49%
    02:00 +10°C° 0 mm 2 mps 757 mmHg 52%
    03:00 +10°C° 0 mm 2 mps 757 mmHg 55%
    04:00 +9°C° 0 mm 3 mps 757 mmHg 58%
    05:00 +10°C° 0 mm 3 mps 758 mmHg 58%
    06:00 +11°C° 0 mm 3 mps 758 mmHg 58%
    07:00 +11°C° 0 mm 3 mps 758 mmHg 58%
    08:00 +13°C° 0 mm 3 mps 758 mmHg 52%
    09:00 +14°C° 0 mm 4 mps 759 mmHg 47%
    10:00 +15°C° 0 mm 4 mps 759 mmHg 41%
    11:00 +17°C° 0 mm 4 mps 759 mmHg 37%
    12:00 +18°C° 0 mm 4 mps 758 mmHg 33%
    13:00 +18°C° 0 mm 4 mps 758 mmHg 29%
    14:00 +18°C° 0 mm 4 mps 758 mmHg 30%
    15:00 +18°C° 0 mm 4 mps 758 mmHg 30%
    16:00 +18°C° 0 mm 4 mps 758 mmHg 30%
    17:00 +15°C° 0 mm 4 mps 758 mmHg 35%
    18:00 +14°C° 0 mm 4 mps 758 mmHg 40%
    19:00 +12°C° 0 mm 3 mps 759 mmHg 44%
    20:00 +11°C° 0 mm 3 mps 759 mmHg 46%
    21:00 +11°C° 0 mm 3 mps 759 mmHg 48%
    22:00 +10°C° 0 mm 2 mps 760 mmHg 49%
    23:00 +9°C° 0 mm 2 mps 760 mmHg 52%

    Day after tomorrow, 20 September, Friday

    Time Temperature Precipitation Wind Pressure Humidity
    00:00 +9°C° 0 mm 2 mps 760 mmHg 55%
    01:00 +8°C° 0 mm 2 mps 760 mmHg 58%
    02:00 +8°C° 0 mm 2 mps 760 mmHg 60%
    03:00 +8°C° 0 mm 2 mps 760 mmHg 63%
    04:00 +7°C° 0 mm 2 mps 760 mmHg 65%
    05:00 +9°C° 0 mm 1 mps 760 mmHg 63%
    06:00 +10°C° 0 mm 1 mps 760 mmHg 61%
    07:00 +10°C° 0 mm 1 mps 760 mmHg 59%
    08:00 +12°C° 0 mm 1 mps 760 mmHg 52%
    09:00 +14°C° 0 mm 1 mps 761 mmHg 46%
    10:00 +18°C° 0 mm 1 mps 761 mmHg 39%
    11:00 +19°C° 0 mm 1 mps 761 mmHg 36%
    12:00 +19°C° 0 mm 1 mps 760 mmHg 33%
    13:00 +20°C° 0 mm 1 mps 760 mmHg 30%
    14:00 +20°C° 0 mm 1 mps 759 mmHg 29%
    15:00 +20°C° 0 mm 1 mps 759 mmHg 29%
    16:00 +20°C° 0 mm 1 mps 759 mmHg 28%
    17:00 +18°C° 0 mm 1 mps 759 mmHg 32%
    18:00 +16°C° 0 mm 1 mps 759 mmHg 35%
    19:00 +14°C° 0 mm 1 mps 759 mmHg 39%
    20:00 +14°C° 0 mm 1 mps 760 mmHg 40%
    21:00 +13°C° 0 mm 1 mps 760 mmHg 42%
    22:00 +13°C° 0 mm 1 mps 760 mmHg 44%
    23:00 +12°C° 0 mm 1 mps 760 mmHg 45%

    21 September, Saturday

    Time Temperature Precipitation Wind Pressure Humidity
    00:00 +12°C° 0 mm 1 mps 760 mmHg 46%
    01:00 +11°C° 0 mm 1 mps 760 mmHg 48%
    02:00 +11°C° 0 mm 1 mps 760 mmHg 49%
    03:00 +10°C° 0 mm 1 mps 760 mmHg 50%
    04:00 +10°C° 0 mm 1 mps 760 mmHg 52%
    05:00 +11°C° 0 mm 1 mps 760 mmHg 50%
    06:00 +11°C° 0 mm 1 mps 760 mmHg 49%
    07:00 +12°C° 0 mm 1 mps 760 mmHg 47%
    08:00 +14°C° 0 mm 2 mps 760 mmHg 42%
    09:00 +16°C° 0 mm 2 mps 760 mmHg 37%
    10:00 +18°C° 0 mm 2 mps 760 mmHg 32%
    11:00 +19°C° 0 mm 3 mps 760 mmHg 30%
    12:00 +20°C° 0 mm 3 mps 760 mmHg 28%
    13:00 +21°C° 0 mm 3 mps 759 mmHg 27%
    14:00 +21°C° 0 mm 3 mps 759 mmHg 27%
    15:00 +21°C° 0 mm 3 mps 758 mmHg 27%
    16:00 +21°C° 0 mm 3 mps 758 mmHg 27%
    17:00 +19°C° 0 mm 2 mps 758 mmHg 30%
    18:00 +18°C° 0 mm 2 mps 758 mmHg 34%
    19:00 +16°C° 0 mm 2 mps 758 mmHg 37%
    20:00 +15°C° 0 mm 2 mps 758 mmHg 38%
    21:00 +14°C° 0 mm 2 mps 758 mmHg 39%
    22:00 +14°C° 0 mm 2 mps 757 mmHg 40%
    23:00 +12°C° 0 mm 3 mps 757 mmHg 42%

    22 September, Sunday

    Time Temperature Precipitation Wind Pressure Humidity
    00:00 +12°C° 0 mm 3 mps 757 mmHg 43%
    01:00 +11°C° 0 mm 3 mps 757 mmHg 45%
    02:00 +11°C° 0 mm 3 mps 756 mmHg 46%
    03:00 +10°C° 0 mm 3 mps 756 mmHg 47%
    04:00 +10°C° 0 mm 3 mps 756 mmHg 48%
    05:00 +11°C° 0 mm 3 mps 756 mmHg 46%
    06:00 +11°C° 0 mm 3 mps 755 mmHg 44%
    07:00 +12°C° 0 mm 3 mps 755 mmHg 42%
    08:00 +14°C° 0 mm 4 mps 755 mmHg 37%
    09:00 +18°C° 0 mm 4 mps 755 mmHg 33%
    10:00 +20°C° 0 mm 4 mps 755 mmHg 28%
    11:00 +22°C° 0 mm 5 mps 754 mmHg 27%
    12:00 +25°C° 0 mm 5 mps 754 mmHg 25%
    13:00 +26°C° 0 mm 5 mps 753 mmHg 23%
    14:00 +26°C° 0 mm 5 mps 752 mmHg 24%
    15:00 +27°C° 0 mm 4 mps 752 mmHg 26%
    16:00 +27°C° 0 mm 4 mps 751 mmHg 27%
    17:00 +26°C° 0 mm 3 mps 751 mmHg 31%
    18:00 +24°C° 0 mm 3 mps 751 mmHg 35%
    19:00 +23°C° 0 mm 2 mps 751 mmHg 39%
    20:00 +23°C° 0 mm 2 mps 751 mmHg 43%
    21:00 +21°C° 0 mm 3 mps 751 mmHg 46%
    22:00 +21°C° 0 mm 3 mps 750 mmHg 49%
    23:00 +20°C° 0 mm 3 mps 750 mmHg 57%

    23 September, Monday

    Time Temperature Precipitation Wind Pressure Humidity
    00:00 +19°C° 0 mm 3 mps 750 mmHg 66%
    01:00 +18°C° 0 mm 2 mps 750 mmHg 74%
    02:00 +18°C° 0 mm 2 mps 749 mmHg 77%
    03:00 +17°C° 0 mm 2 mps 749 mmHg 79%
    04:00 +17°C° 0 mm 2 mps 749 mmHg 82%
    05:00 +17°C° 0 mm 2 mps 749 mmHg 80%
    06:00 +18°C° 0 mm 2 mps 749 mmHg 78%
    07:00 +18°C° 0 mm 2 mps 749 mmHg 76%
    08:00 +20°C° 0 mm 2 mps 749 mmHg 70%
    09:00 +23°C° 0 mm 2 mps 749 mmHg 64%
    10:00 +24°C° 0 mm 2 mps 749 mmHg 58%
    11:00 +25°C° 0 mm 3 mps 749 mmHg 54%
    12:00 +26°C° 0 mm 3 mps 749 mmHg 50%
    13:00 +27°C° 0 mm 3 mps 748 mmHg 47%
    14:00 +25°C° 0.1 mm 4 mps 748 mmHg 51%
    15:00 +23°C° 0.1 mm 5 mps 748 mmHg 55%
    16:00 +21°C° 0.1 mm 6 mps 748 mmHg 59%
    17:00 +20°C° 0.1 mm 6 mps 749 mmHg 65%
    18:00 +20°C° 0.1 mm 5 mps 749 mmHg 70%
    19:00 +19°C° 0.1 mm 5 mps 749 mmHg 76%
    20:00 +19°C° 0.1 mm 5 mps 749 mmHg 77%
    21:00 +17°C° 0.1 mm 6 mps 749 mmHg 78%
    22:00 +17°C° 0.1 mm 6 mps 749 mmHg 79%
    23:00 +17°C° 0.1 mm 6 mps 749 mmHg 79%
    Show more